Regional Weather Roundup
Issued by NWS Jackson, KY

Home | Current Version | Previous Version | Graphics & Text | Print | Product List | Glossary On
Versions: 1 2 3 4 5 6 7 8 9 10 11 12 13 14 15 16 17 18 19 20 21 22 23 24 25 26 27 28 29 30 31 32 33 34 35 36 37 38 39 40 41 42 43 44 45 46 47 48 49 50
418
ASUS43 KJKL 092010
RWRJKL

EAST KENTUCKY HOURLY WEATHER ROUNDUP
NATIONAL WEATHER SERVICE JACKSON KY
300 PM EST FRI DEC 09 2016

NOTE: "FAIR" INDICATES FEW OR NO CLOUDS BELOW 12,000 FEET WITH
NO SIGNIFICANT WEATHER AND/OR OBSTRUCTIONS TO VISIBILITY.

* THESE REPORTS ARE NOT UNDER NWS QUALITY CONTROL AND MAY NOT
  REPORT WEATHER SUCH AS PRECIPITATION AND FOG.

KYZ079-080-083-085-087-088-110-112-115-119-120-092100
...EASTERN KENTUCKY...

CITY           SKY/WX    TMP DP  RH WIND       PRES   REMARKS
JACKSON        PTSUNNY   25  12  58 VRB5      30.49S WCI  19
LONDON         PTSUNNY   29  13  51 N5        30.49F WCI  24
SOMERSET*      PTSUNNY   27  14  59 W3        30.54F
MONTICELLO*    MOSUNNY   29  17  61 VRB7      30.54F WCI  22
MIDDLESBORO*   SUNNY     31  15  50 NW5       30.49S WCI  26
HARLAN APT*    PTCLDY    32  12  43 SW6       30.45S WCI  26
PIKE CO APT*   CLOUDY    24  15  68 NW6       30.47S WCI  17
BIG SANDY APT* CLOUDY    25  14  62 NW6       30.49F WCI  18
MOREHEAD APT*  CLOUDY    25  10  54 VRB7      30.53S WCI  17
ASHLAND*       CLOUDY    27  12  54 W9        30.52S WCI  17
$$

KYZ035-036-041-042-044-050-067-078-099-092100
...CENTRAL KENTUCKY...

CITY           SKY/WX    TMP DP  RH WIND       PRES   REMARKS
MT STERLING*   CLOUDY    25  14  63 W5        30.53S WCI  19
FLEMING/MASON* CLOUDY    23  12  63 W6        30.53S WCI  16
DANVILLE*      PTSUNNY   27  14  59 NW7       30.53S WCI  19
LEXINGTON      CLOUDY    25  13  60 W6        30.52S WCI  18
FRANKFORT      CLOUDY    25  11  55 W6        30.53S WCI  18
LOUISVILLE     PTSUNNY   28  12  51 N6        30.56S WCI  22
LEBANON*         N/A     27  14  59 SW5       30.54S WCI  21
GLASGOW*       MOSUNNY   32  17  53 SW7       30.54S WCI  26
BOWLING GREEN  MOSUNNY   34  15  46 CALM      30.56F
$$

KYZ091>093-OHZ055-061-077-WVZ005-015-034-035-042-092100
...SOUTHERN OHIO/WEST VIRGINIA...

CITY           SKY/WX    TMP DP  RH WIND       PRES   REMARKS
COVINGTON      FLURRIES  24  13  62 W7        30.51S WCI  16
COLUMBUS       LGT SNOW  27  21  78 NW12      30.45S WCI  17
DAYTON         LGT SNOW  25  17  72 W10       30.47S WCI  15
WILMINGTON     CLOUDY    25  15  66 W12       30.46F WCI  14
HUNTINGTON     CLOUDY    26  13  57 W7        30.51S WCI  18
CHARLESTON     FLURRIES  26  15  63 W8        30.48R WCI  18
PINEVILLE*       N/A     26  11  52 MISG      30.48R
BECKLEY        FLURRIES  21  11  65 W12       30.37R WCI   9
BLUEFIELD      CLOUDY    19   8  62 NW9       30.35R WCI   8
LOGAN CO APT*  CLOUDY    25  14  63 CALM      30.44S
$$

VAZ002-007-008-TNZ017-027-036-066-071-092100
...SOUTHWEST VIRGINIA/EAST TENNESSEE...

CITY           SKY/WX    TMP DP  RH WIND       PRES   REMARKS
WISE*          PTSUNNY   25  14  63 NW3       30.38F
ABINGDON*      SUNNY     29  13  50 N8        30.39S WCI  21
BRISTOL        MOSUNNY   32  13  45 NW7       30.43F WCI  26
MORRISTOWN*    CLEAR     32  14  47 CALM      30.45F
SEVIERVILLE*   CLEAR     32  12  43 CALM      30.47F
KNOXVILLE      SUNNY     34  14  43 CALM      30.48F
OAK RIDGE      SUNNY     36  14  40 VRB6      30.50S WCI  31
CROSSVILLE     SUNNY     30  14  51 VRB7      30.44F WCI  23
NASHVILLE      SUNNY     37  15  40 NW8       30.55F WCI  31
$$

...KEY TO REMARKS...
VSB - VISIBILITY IN MILES
WCI - WIND CHILL INDEX
HX  - HEAT INDEX

$$




USA.gov is the U.S. government's official web portal to all federal, state and local government web resources and services.